Location: Newark
(47.1042°N, 8.6744°E)
Time: 05:01:18
(UTC+00:00)

N. Korean satellite - Pass Details

Date: 13 October 2019
Orbit: 456 x 506 km, 97.2° (Epoch: 18 November)

Event Time Altitude Azimuth Distance (km) Brightness Sun altitude
Rises 04:37:14 0° 25° (NNE) 2,528 10.6 -11.5°
Reaches altitude 10° 04:39:38 10° 42° (NE) 1,654 9.9 -11.1°
Maximum altitude 04:42:27 22° 94° (E) 1,103 9.5 -10.6°
Drops below altitude 10° 04:45:17 10° 147° (SSE) 1,665 9.8 -10.1°
Sets 04:47:42 0° 163° (SSE) 2,550 10.5 -9.7°
